BISN23 CYTR-CYBG

Flight info

Callsign BISN23
Flight time N/A
Altitude 37000
Route DCT IPTOS Q921 AGLUK DCT
Aircraft C17/H-SDE1E2FGHIJ5RTUWXY/LB1D1

Departure

Time 2026-04-24 01:14
Airport CFB Trenton (CYTR)

Arrival

Time N/A
Airport Saguenay-Bagotville Airport (CYBG)
Time Latitude Longitude Altitude Speed Heading
2026-04-24 00:17 44.11691 -77.54210 280 ft 0 kts 81°
2026-04-24 00:50 44.11690 -77.54224 290 ft 2 kts 82°
2026-04-24 00:50 44.11692 -77.54250 291 ft 3 kts 119°
2026-04-24 00:51 44.11708 -77.54268 293 ft 3 kts 164°
2026-04-24 00:51 44.11725 -77.54284 293 ft 3 kts 158°
2026-04-24 00:51 44.11729 -77.54285 292 ft 0 kts 173°
2026-04-24 01:03 44.11697 -77.54279 287 ft 10 kts 173°
2026-04-24 01:04 44.11627 -77.54260 287 ft 3 kts 169°
2026-04-24 01:04 44.11623 -77.54259 287 ft 2 kts 168°
2026-04-24 01:04 44.11574 -77.54244 287 ft 12 kts 171°
2026-04-24 01:04 44.11456 -77.54219 286 ft 21 kts 171°
2026-04-24 01:05 44.11353 -77.54196 286 ft 7 kts 172°
2026-04-24 01:05 44.11285 -77.54225 288 ft 14 kts 226°
2026-04-24 01:05 44.11231 -77.54308 289 ft 21 kts 222°
2026-04-24 01:05 44.11144 -77.54335 285 ft 0 kts 163°
2026-04-24 01:08 44.11140 -77.54333 285 ft 4 kts 164°
2026-04-24 01:08 44.11083 -77.54296 287 ft 13 kts 132°
2026-04-24 01:09 44.11102 -77.54189 284 ft 16 kts 50°
2026-04-24 01:09 44.11200 -77.54029 284 ft 27 kts 49°
2026-04-24 01:09 44.11330 -77.53815 287 ft 28 kts 50°
2026-04-24 01:09 44.11468 -77.53572 293 ft 36 kts 52°
2026-04-24 01:10 44.11594 -77.53342 289 ft 24 kts 53°
2026-04-24 01:10 44.11630 -77.53255 291 ft 9 kts 76°
2026-04-24 01:10 44.11611 -77.53154 290 ft 12 kts 118°
2026-04-24 01:10 44.11594 -77.53082 289 ft 5 kts 91°
2026-04-24 01:11 44.11607 -77.53021 293 ft 9 kts 52°
2026-04-24 01:11 44.11672 -77.52924 291 ft 19 kts 51°
2026-04-24 01:11 44.11777 -77.52742 295 ft 29 kts 50°
2026-04-24 01:11 44.11927 -77.52491 292 ft 38 kts 51°
2026-04-24 01:12 44.12108 -77.52169 295 ft 44 kts 50°
2026-04-24 01:12 44.12268 -77.51910 297 ft 25 kts 55°
2026-04-24 01:12 44.12307 -77.51742 296 ft 17 kts 60°
2026-04-24 01:12 44.12390 -77.51632 295 ft 11 kts 11°
2026-04-24 01:13 44.12412 -77.51646 298 ft 1 kts 299°
2026-04-24 01:13 44.12413 -77.51665 298 ft 4 kts 261°
2026-04-24 01:13 44.12406 -77.51687 297 ft 0 kts 238°
2026-04-24 01:13 44.12401 -77.51696 298 ft 13 kts 235°
2026-04-24 01:14 44.12159 -77.52087 296 ft 97 kts 229°
2026-04-24 01:14 44.11552 -77.53119 333 ft 171 kts 231°
2026-04-24 01:14 44.10681 -77.54600 651 ft 229 kts 230°
2026-04-24 01:14 44.09569 -77.56500 1290 ft 265 kts 234°
2026-04-24 01:15 44.08574 -77.58491 3446 ft 236 kts 239°
2026-04-24 01:15 44.07707 -77.60444 4926 ft 252 kts 239°
2026-04-24 01:15 44.06753 -77.62631 5879 ft 266 kts 246°
2026-04-24 01:15 44.05919 -77.65033 6587 ft 280 kts 248°
2026-04-24 01:16 44.05084 -77.67198 8312 ft 227 kts 249°
2026-04-24 01:16 44.04348 -77.68958 10198 ft 196 kts 252°
2026-04-24 01:16 44.03674 -77.70473 11536 ft 185 kts 252°
2026-04-24 01:16 44.02563 -77.71750 12039 ft 239 kts 210°
2026-04-24 01:17 44.00782 -77.71853 12580 ft 280 kts 171°
2026-04-24 01:17 43.98948 -77.70540 12835 ft 318 kts 136°
2026-04-24 01:17 43.97609 -77.67952 12960 ft 346 kts 106°
2026-04-24 01:17 43.97197 -77.64583 13008 ft 366 kts 78°
2026-04-24 01:18 43.97898 -77.61140 13020 ft 380 kts 52°
2026-04-24 01:18 43.99643 -77.58339 13021 ft 393 kts 29°
2026-04-24 01:18 44.02129 -77.56634 13014 ft 412 kts 14°
2026-04-24 01:18 44.04896 -77.55093 12996 ft 448 kts 21°
2026-04-24 01:19 44.07662 -77.52774 12988 ft 478 kts 28°
2026-04-24 01:19 44.10353 -77.50036 12990 ft 481 kts 32°
2026-04-24 01:19 44.12947 -77.47083 12981 ft 483 kts 34°
2026-04-24 01:19 44.15472 -77.43975 12986 ft 486 kts 36°
2026-04-24 01:20 44.17961 -77.40789 12987 ft 487 kts 36°
2026-04-24 01:20 44.20436 -77.37552 12994 ft 488 kts 37°
2026-04-24 01:20 44.22900 -77.34291 12990 ft 489 kts 37°
2026-04-24 01:20 44.25360 -77.31004 12991 ft 490 kts 37°
2026-04-24 01:21 44.27741 -77.27582 12993 ft 496 kts 43°
2026-04-24 01:21 44.29972 -77.23905 12999 ft 495 kts 42°
2026-04-24 01:21 44.32252 -77.20295 13006 ft 496 kts 43°
2026-04-24 01:21 44.34492 -77.16654 13008 ft 481 kts 42°
2026-04-24 01:22 44.36555 -77.13311 13005 ft 430 kts 41°
2026-04-24 01:22 44.38455 -77.10273 12998 ft 404 kts 40°